Location: Arbon
(43.0005°N, 0.7472°E)
Time: 11:53:02
(UTC+00:00)

BREEZE-M DEB (TANK) - Pass Details

Date: 22 April 2026
Orbit: 326 x 14621 km, 49.6° (Epoch: 13 May)

Event Time Altitude Azimuth Distance (km) Brightness Sun altitude
Rises 20:46:05 0° 300° (WNW) 5,108 9.8 -19.7°
Reaches altitude 10° 20:51:00 10° 293° (WNW) 2,819 8.0 -20.4°
Maximum altitude 20:55:44 30° 231° (SW) 937 4.5 -21.0°
Enters shadow 20:56:06 29° 217° (SW) 909 4.3 -21.1°
